Location: Bannatyne
(13.0833°N, 59.5333°W)
Time: 19:09:03
(UTC+00:00)

Transit 2A - Pass Details

Date: 28 January 2020
Orbit: 600 x 959 km, 66.7° (Epoch: 19 February)

Event Time Altitude Azimuth Distance (km) Brightness Sun altitude
Rises 08:17:56 0° 360° (N) 3,166 - -30.6°
Reaches altitude 10° 08:20:37 10° 14° (NNE) 2,306 - -30.0°
Exits shadow 08:21:17 13° 19° (NNE) 2,124 8.3 -29.8°
Maximum altitude 08:24:56 25° 68° (ENE) 1,605 8.1 -28.9°
Drops below altitude 10° 08:29:33 10° 122° (ESE) 2,502 9.5 -27.8°
Sets 08:32:35 0° 134° (SE) 3,496 10.3 -27.1°
